Time,TemperatureF,DewpointF,PressureIn,WindDirection,WindDirectionDegrees,WindSpeedMPH,WindSpeedGustMPH,Humidity,HourlyPrecipIn,Conditions,Clouds,dailyrainin,SolarRadiationWatts/m^2,SoftwareType,DateUTC
2013-01-24 00:01:00,29.7,10.9,30.10,ENE,76,0.0,5.0,42,0.00,,,0.00,0.0,meteohub,2013-01-24 05:01:00,
2013-01-24 00:02:00,29.7,10.9,30.10,ENE,76,1.0,5.0,42,0.00,,,0.00,0.0,meteohub,2013-01-24 05:02:00,
2013-01-24 00:07:00,29.5,10.8,30.10,ENE,76,0.0,4.0,42,0.00,,,0.00,0.0,meteohub,2013-01-24 05:07:00,
2013-01-24 00:10:00,29.5,11.3,30.10,ESE,109,0.0,4.0,43,0.00,,,0.00,0.0,meteohub,2013-01-24 05:10:00,
2013-01-24 00:16:00,29.3,12.0,30.10,ESE,109,2.0,5.0,45,0.00,,,0.00,0.0,meteohub,2013-01-24 05:16:00,
2013-01-24 00:22:00,29.1,12.4,30.10,East,94,3.0,6.0,46,0.00,,,0.00,0.0,meteohub,2013-01-24 05:22:00,
2013-01-24 00:27:00,28.8,12.9,30.10,ESE,117,1.0,9.0,48,0.00,,,0.00,0.0,meteohub,2013-01-24 05:27:00,
2013-01-24 00:32:00,28.4,12.9,30.09,ENE,67,3.0,9.0,49,0.00,,,0.00,0.0,meteohub,2013-01-24 05:32:00,
2013-01-24 00:38:00,28.2,13.6,30.09,East,86,2.0,9.0,51,0.00,,,0.00,0.0,meteohub,2013-01-24 05:38:00,
2013-01-24 00:44:00,27.7,14.0,30.09,ESE,106,3.0,6.0,53,0.00,,,0.00,0.0,meteohub,2013-01-24 05:44:00,
2013-01-24 00:50:00,27.5,14.2,30.09,ESE,105,2.0,5.0,54,0.00,,,0.00,0.0,meteohub,2013-01-24 05:50:00,
2013-01-24 00:56:00,27.3,14.9,30.09,SE,124,2.0,5.0,56,0.00,,,0.00,0.0,meteohub,2013-01-24 05:56:00,
2013-01-24 01:02:00,27.0,15.3,30.09,SE,127,1.0,4.0,58,0.00,,,0.00,0.0,meteohub,2013-01-24 06:02:00,
2013-01-24 01:07:00,27.0,16.3,30.09,SE,127,1.0,4.0,61,0.00,,,0.00,0.0,meteohub,2013-01-24 06:07:00,
2013-01-24 01:12:00,26.8,16.9,30.08,SE,127,0.0,3.0,63,0.00,,,0.00,0.0,meteohub,2013-01-24 06:12:00,
2013-01-24 01:17:00,26.6,17.8,30.08,ENE,65,2.0,4.0,66,0.00,,,0.00,0.0,meteohub,2013-01-24 06:17:00,
2013-01-24 01:24:00,26.4,18.3,30.08,ENE,66,1.0,4.0,68,0.00,,,0.00,0.0,meteohub,2013-01-24 06:24:00,
2013-01-24 01:30:00,26.1,18.3,30.08,ENE,66,2.0,4.0,69,0.00,,,0.00,0.0,meteohub,2013-01-24 06:30:00,
2013-01-24 01:36:00,25.9,18.5,30.08,NE,36,2.0,5.0,70,0.00,,,0.00,0.0,meteohub,2013-01-24 06:36:00,
2013-01-24 01:42:00,25.9,18.7,30.08,NNE,20,0.0,5.0,71,0.00,,,0.00,0.0,meteohub,2013-01-24 06:42:00,
2013-01-24 01:47:00,25.7,18.9,30.08,NNE,20,1.0,5.0,72,0.00,,,0.00,0.0,meteohub,2013-01-24 06:47:00,
2013-01-24 01:52:00,25.5,19.0,30.08,North,5,2.0,4.0,73,0.00,,,0.00,0.0,meteohub,2013-01-24 06:52:00,
2013-01-24 01:57:00,25.3,18.9,30.07,NNE,25,2.0,4.0,73,0.00,,,0.00,0.0,meteohub,2013-01-24 06:57:00,
2013-01-24 02:02:00,25.2,19.0,30.07,NNE,17,0.0,5.0,74,0.00,,,0.00,0.0,meteohub,2013-01-24 07:02:00,
2013-01-24 02:07:00,25.0,18.9,30.07,NNE,17,0.0,5.0,74,0.00,,,0.00,0.0,meteohub,2013-01-24 07:07:00,
2013-01-24 02:12:00,24.8,18.9,30.07,ENE,78,0.0,5.0,75,0.00,,,0.00,0.0,meteohub,2013-01-24 07:12:00,
2013-01-24 02:17:00,24.8,18.9,30.06,ENE,71,0.0,3.0,75,0.00,,,0.00,0.0,meteohub,2013-01-24 07:17:00,
2013-01-24 02:22:00,24.6,18.7,30.07,ENE,71,0.0,3.0,75,0.00,,,0.00,0.0,meteohub,2013-01-24 07:22:00,
2013-01-24 02:28:00,24.4,18.9,30.06,ENE,72,1.0,5.0,76,0.00,,,0.00,0.0,meteohub,2013-01-24 07:28:00,
2013-01-24 02:34:00,24.3,18.7,30.06,NE,49,3.0,6.0,76,0.00,,,0.00,0.0,meteohub,2013-01-24 07:34:00,
2013-01-24 02:40:00,24.1,18.5,30.07,ENE,65,3.0,6.0,76,0.00,,,0.00,0.0,meteohub,2013-01-24 07:40:00,
2013-01-24 02:46:00,23.9,18.3,30.07,NE,51,2.0,5.0,76,0.00,,,0.00,0.0,meteohub,2013-01-24 07:46:00,
2013-01-24 02:52:00,23.9,18.3,30.07,NNE,26,1.0,5.0,76,0.00,,,0.00,0.0,meteohub,2013-01-24 07:52:00,
2013-01-24 02:57:00,23.7,18.1,30.07,WNW,296,0.0,6.0,76,0.00,,,0.00,0.0,meteohub,2013-01-24 07:57:00,
2013-01-24 03:02:00,23.5,18.0,30.07,NNE,16,0.0,6.0,76,0.00,,,0.00,0.0,meteohub,2013-01-24 08:02:00,
2013-01-24 03:07:00,23.4,17.8,30.07,NE,35,2.0,6.0,76,0.00,,,0.00,0.0,meteohub,2013-01-24 08:07:00,
2013-01-24 03:12:00,23.4,17.8,30.07,NNE,22,3.0,6.0,76,0.00,,,0.00,0.0,meteohub,2013-01-24 08:12:00,
2013-01-24 03:20:00,23.2,18.0,30.07,NE,49,0.0,7.0,77,0.00,,,0.00,0.0,meteohub,2013-01-24 08:20:00,
2013-01-24 03:26:00,23.0,17.8,30.07,NNE,26,1.0,7.0,77,0.00,,,0.00,0.0,meteohub,2013-01-24 08:26:00,
2013-01-24 03:32:00,23.0,17.8,30.08,ENE,69,0.0,4.0,77,0.00,,,0.00,0.0,meteohub,2013-01-24 08:32:00,
2013-01-24 03:37:00,22.8,17.8,30.08,NE,35,4.0,4.0,78,0.00,,,0.00,0.0,meteohub,2013-01-24 08:37:00,
2013-01-24 03:42:00,22.8,17.8,30.08,North,5,1.0,7.0,78,0.00,,,0.00,0.0,meteohub,2013-01-24 08:42:00,
2013-01-24 03:47:00,22.8,17.8,30.08,NE,45,1.0,7.0,78,0.00,,,0.00,0.0,meteohub,2013-01-24 08:47:00,
2013-01-24 03:53:00,22.6,17.4,30.09,WNW,286,1.0,7.0,77,0.00,,,0.00,0.0,meteohub,2013-01-24 08:53:00,
2013-01-24 03:59:00,22.5,17.2,30.08,NE,48,1.0,5.0,77,0.00,,,0.00,0.0,meteohub,2013-01-24 08:59:00,
2013-01-24 04:05:00,22.5,17.2,30.09,WSW,252,1.0,5.0,77,0.00,,,0.00,0.0,meteohub,2013-01-24 09:05:00,
2013-01-24 04:12:00,22.5,17.2,30.09,NNE,28,3.0,5.0,77,0.00,,,0.00,0.0,meteohub,2013-01-24 09:12:00,
2013-01-24 04:17:00,22.3,17.1,30.09,NE,43,0.0,5.0,77,0.00,,,0.00,0.0,meteohub,2013-01-24 09:17:00,
2013-01-24 04:24:00,22.3,17.1,30.09,NW,322,0.0,4.0,77,0.00,,,0.00,0.0,meteohub,2013-01-24 09:24:00,
2013-01-24 04:30:00,22.3,16.7,30.09,ENE,77,0.0,5.0,76,0.00,,,0.00,0.0,meteohub,2013-01-24 09:30:00,
2013-01-24 04:36:00,22.3,17.1,30.09,East,84,0.0,5.0,77,0.00,,,0.00,0.0,meteohub,2013-01-24 09:36:00,
2013-01-24 04:42:00,22.3,17.1,30.09,South,187,0.0,3.0,77,0.00,,,0.00,0.0,meteohub,2013-01-24 09:42:00,
2013-01-24 04:48:00,22.3,17.1,30.10,NE,44,3.0,5.0,77,0.00,,,0.00,0.0,meteohub,2013-01-24 09:48:00,
2013-01-24 04:54:00,22.1,16.9,30.10,ENE,67,0.0,6.0,77,0.00,,,0.00,0.0,meteohub,2013-01-24 09:54:00,
2013-01-24 05:00:00,22.1,17.2,30.10,NNE,13,2.0,6.0,78,0.00,,,0.00,0.0,meteohub,2013-01-24 10:00:00,
2013-01-24 05:06:00,22.1,17.2,30.11,NNE,28,0.0,6.0,78,0.00,,,0.00,0.0,meteohub,2013-01-24 10:06:00,
2013-01-24 05:12:00,22.1,17.4,30.11,NNE,22,3.0,6.0,79,0.00,,,0.00,0.0,meteohub,2013-01-24 10:12:00,
2013-01-24 05:17:00,22.1,17.4,30.11,NE,48,0.0,6.0,79,0.00,,,0.00,0.0,meteohub,2013-01-24 10:17:00,
2013-01-24 05:25:00,21.9,17.6,30.12,NE,48,0.0,5.0,80,0.00,,,0.00,0.0,meteohub,2013-01-24 10:25:00,
2013-01-24 05:31:00,21.9,17.6,30.12,NE,48,0.0,4.0,80,0.00,,,0.00,0.0,meteohub,2013-01-24 10:31:00,
2013-01-24 05:37:00,21.7,17.4,30.12,NE,48,0.0,2.0,80,0.00,,,0.00,0.0,meteohub,2013-01-24 10:37:00,
2013-01-24 05:43:00,21.6,17.2,30.12,NE,48,0.0,2.0,80,0.00,,,0.00,0.0,meteohub,2013-01-24 10:43:00,
2013-01-24 05:49:00,21.4,17.1,30.13,NE,48,0.0,2.0,80,0.00,,,0.00,0.0,meteohub,2013-01-24 10:49:00,
2013-01-24 05:55:00,21.2,17.1,30.14,NE,48,0.0,0.0,81,0.00,,,0.00,0.0,meteohub,2013-01-24 10:55:00,
2013-01-24 06:01:00,21.2,17.1,30.14,NE,48,2.0,0.0,81,0.00,,,0.00,0.0,meteohub,2013-01-24 11:01:00,
2013-01-24 06:07:00,21.2,17.1,30.15,NE,48,0.0,0.0,81,0.00,,,0.00,0.0,meteohub,2013-01-24 11:07:00,
2013-01-24 06:12:00,21.2,17.4,30.14,NE,48,0.0,2.0,82,0.00,,,0.00,0.0,meteohub,2013-01-24 11:12:00,
2013-01-24 06:20:00,21.2,17.4,30.15,NE,48,0.0,1.0,82,0.00,,,0.00,0.0,meteohub,2013-01-24 11:20:00,
2013-01-24 06:26:00,21.2,17.4,30.16,NE,48,0.0,1.0,82,0.00,,,0.00,0.0,meteohub,2013-01-24 11:26:00,
2013-01-24 06:32:00,21.2,17.1,30.16,NE,48,0.0,1.0,81,0.00,,,0.00,0.0,meteohub,2013-01-24 11:32:00,
2013-01-24 06:37:00,21.2,17.1,30.16,NE,48,1.0,3.0,81,0.00,,,0.00,0.0,meteohub,2013-01-24 11:37:00,
2013-01-24 06:42:00,21.2,16.9,30.17,NE,48,0.0,3.0,80,0.00,,,0.00,0.0,meteohub,2013-01-24 11:42:00,
2013-01-24 06:47:00,21.2,16.9,30.17,NE,48,0.0,3.0,80,0.00,,,0.00,0.0,meteohub,2013-01-24 11:47:00,
2013-01-24 06:52:00,21.2,16.9,30.17,NE,48,0.0,2.0,80,0.00,,,0.00,0.0,meteohub,2013-01-24 11:52:00,
2013-01-24 06:57:00,21.2,17.1,30.17,NE,48,0.0,1.0,81,0.00,,,0.00,0.0,meteohub,2013-01-24 11:57:00,
2013-01-24 07:02:00,21.0,16.7,30.18,NE,48,0.0,1.0,80,0.00,,,0.00,0.0,meteohub,2013-01-24 12:02:00,
2013-01-24 07:07:00,20.8,16.5,30.18,NE,48,0.0,1.0,80,0.00,,,0.00,0.0,meteohub,2013-01-24 12:07:00,
2013-01-24 07:12:00,20.7,16.3,30.19,NE,48,0.0,1.0,80,0.00,,,0.00,0.0,meteohub,2013-01-24 12:12:00,
2013-01-24 07:17:00,20.7,16.3,30.20,NE,48,0.0,1.0,80,0.00,,,0.00,0.0,meteohub,2013-01-24 12:17:00,
2013-01-24 07:22:00,20.5,16.2,30.21,NE,48,0.0,1.0,80,0.00,,,0.00,0.0,meteohub,2013-01-24 12:22:00,
2013-01-24 07:27:00,20.3,16.0,30.21,NE,48,0.0,1.0,80,0.00,,,0.00,0.0,meteohub,2013-01-24 12:27:00,
2013-01-24 07:32:00,20.3,16.0,30.21,NE,48,0.0,1.0,80,0.00,,,0.00,5.0,meteohub,2013-01-24 12:32:00,
2013-01-24 07:37:00,20.3,16.0,30.21,NE,48,0.0,0.0,80,0.00,,,0.00,7.0,meteohub,2013-01-24 12:37:00,
2013-01-24 07:42:00,20.1,16.0,30.22,NE,48,0.0,1.0,81,0.00,,,0.00,9.0,meteohub,2013-01-24 12:42:00,
2013-01-24 07:47:00,20.1,16.0,30.22,NE,48,0.0,1.0,81,0.00,,,0.00,12.0,meteohub,2013-01-24 12:47:00,
2013-01-24 07:52:00,19.9,15.8,30.22,NE,48,0.0,1.0,81,0.00,,,0.00,18.0,meteohub,2013-01-24 12:52:00,
2013-01-24 07:57:00,19.9,15.8,30.23,NE,48,0.0,0.0,81,0.00,,,0.00,23.0,meteohub,2013-01-24 12:57:00,
2013-01-24 08:02:00,19.8,15.6,30.23,NE,48,0.0,0.0,81,0.00,,,0.00,19.0,meteohub,2013-01-24 13:02:00,
2013-01-24 08:07:00,19.8,15.6,30.24,NE,48,1.0,0.0,81,0.00,,,0.00,26.0,meteohub,2013-01-24 13:07:00,
2013-01-24 08:12:00,19.6,15.6,30.24,NE,48,0.0,1.0,81,0.00,,,0.00,51.0,meteohub,2013-01-24 13:12:00,
2013-01-24 08:17:00,19.8,16.0,30.25,NE,48,0.0,2.0,82,0.00,,,0.00,53.0,meteohub,2013-01-24 13:17:00,
2013-01-24 08:22:00,19.9,16.2,30.26,NE,48,0.0,2.0,82,0.00,,,0.00,58.0,meteohub,2013-01-24 13:22:00,
2013-01-24 08:27:00,20.1,16.3,30.26,NE,48,0.0,1.0,82,0.00,,,0.00,62.0,meteohub,2013-01-24 13:27:00,
2013-01-24 08:32:00,20.3,16.5,30.27,NE,50,2.0,2.0,82,0.00,,,0.00,58.0,meteohub,2013-01-24 13:32:00,
2013-01-24 08:37:00,20.7,16.5,30.27,ENE,59,1.0,4.0,81,0.00,,,0.00,56.0,meteohub,2013-01-24 13:37:00,
2013-01-24 08:43:00,21.0,16.7,30.28,ENE,72,1.0,4.0,80,0.00,,,0.00,49.0,meteohub,2013-01-24 13:43:00,
2013-01-24 08:49:00,21.4,17.1,30.29,ENE,63,1.0,4.0,80,0.00,,,0.00,123.0,meteohub,2013-01-24 13:49:00,
2013-01-24 08:55:00,22.1,17.4,30.29,East,79,3.0,4.0,79,0.00,,,0.00,207.0,meteohub,2013-01-24 13:55:00,
2013-01-24 09:01:00,23.0,18.0,30.30,ENE,59,1.0,5.0,78,0.00,,,0.00,239.0,meteohub,2013-01-24 14:01:00,
2013-01-24 09:07:00,23.7,18.1,30.30,East,100,0.0,5.0,76,0.00,,,0.00,251.0,meteohub,2013-01-24 14:07:00,
2013-01-24 09:12:00,23.9,17.8,30.31,East,100,3.0,5.0,74,0.00,,,0.00,60.0,meteohub,2013-01-24 14:12:00,
2013-01-24 09:17:00,23.7,17.6,30.31,ENE,73,1.0,6.0,74,0.00,,,0.00,120.0,meteohub,2013-01-24 14:17:00,
2013-01-24 09:22:00,23.7,17.2,30.32,ESE,111,2.0,6.0,73,0.00,,,0.00,114.0,meteohub,2013-01-24 14:22:00,
2013-01-24 09:27:00,23.7,17.8,30.32,ESE,111,3.0,5.0,75,0.00,,,0.00,142.0,meteohub,2013-01-24 14:27:00,
2013-01-24 09:32:00,23.7,17.8,30.32,SE,139,0.0,5.0,75,0.00,,,0.00,83.0,meteohub,2013-01-24 14:32:00,
2013-01-24 09:37:00,23.4,17.2,30.33,SE,135,2.0,5.0,74,0.00,,,0.00,67.0,meteohub,2013-01-24 14:37:00,
2013-01-24 09:42:00,23.2,16.2,30.33,West,273,2.0,5.0,71,0.00,,,0.00,162.0,meteohub,2013-01-24 14:42:00,
2013-01-24 09:47:00,23.5,16.7,30.33,ESE,109,3.0,9.0,72,0.00,,,0.00,95.0,meteohub,2013-01-24 14:47:00,
2013-01-24 09:52:00,23.7,16.0,30.34,ESE,115,1.0,9.0,69,0.00,,,0.00,90.0,meteohub,2013-01-24 14:52:00,
2013-01-24 09:57:00,24.1,15.1,30.34,ENE,75,4.0,12.0,65,0.00,,,0.00,67.0,meteohub,2013-01-24 14:57:00,
2013-01-24 10:02:00,24.8,15.4,30.34,WNW,289,2.0,12.0,64,0.00,,,0.00,65.0,meteohub,2013-01-24 15:02:00,
2013-01-24 10:07:00,25.5,16.2,30.34,North,5,1.0,12.0,64,0.00,,,0.00,462.0,meteohub,2013-01-24 15:07:00,
2013-01-24 10:12:00,26.2,15.6,30.34,NNE,25,9.0,11.0,61,0.00,,,0.00,469.0,meteohub,2013-01-24 15:12:00,
2013-01-24 10:17:00,27.0,16.0,30.35,West,261,3.0,11.0,60,0.00,,,0.00,504.0,meteohub,2013-01-24 15:17:00,
2013-01-24 10:22:00,27.3,14.5,30.35,West,279,2.0,11.0,55,0.00,,,0.00,425.0,meteohub,2013-01-24 15:22:00,
2013-01-24 10:27:00,27.5,14.2,30.35,SW,229,11.0,12.0,54,0.00,,,0.00,547.0,meteohub,2013-01-24 15:27:00,
2013-01-24 10:32:00,27.7,13.1,30.36,North,355,2.0,12.0,51,0.00,,,0.00,527.0,meteohub,2013-01-24 15:32:00,
2013-01-24 10:37:00,28.0,13.1,30.37,NNW,344,3.0,14.0,50,0.00,,,0.00,543.0,meteohub,2013-01-24 15:37:00,
2013-01-24 10:42:00,28.2,12.4,30.37,NNE,24,1.0,16.0,48,0.00,,,0.00,536.0,meteohub,2013-01-24 15:42:00,
2013-01-24 10:47:00,28.0,12.2,30.37,NE,42,13.0,16.0,48,0.00,,,0.00,563.0,meteohub,2013-01-24 15:47:00,
2013-01-24 10:52:00,28.0,12.2,30.37,West,263,6.0,16.0,48,0.00,,,0.00,566.0,meteohub,2013-01-24 15:52:00,
2013-01-24 10:57:00,28.2,10.9,30.37,NNW,340,13.0,15.0,45,0.00,,,0.00,592.0,meteohub,2013-01-24 15:57:00,
2013-01-24 11:02:00,28.2,10.9,30.38,NW,317,3.0,15.0,45,0.00,,,0.00,605.0,meteohub,2013-01-24 16:02:00,
2013-01-24 11:07:00,28.2,10.6,30.38,West,280,1.0,13.0,44,0.00,,,0.00,656.0,meteohub,2013-01-24 16:07:00,
2013-01-24 11:12:00,28.6,9.3,30.38,ESE,109,2.0,13.0,41,0.00,,,0.00,582.0,meteohub,2013-01-24 16:12:00,
2013-01-24 11:17:00,28.4,8.8,30.39,WSW,243,4.0,12.0,40,0.00,,,0.00,186.0,meteohub,2013-01-24 16:17:00,
2013-01-24 11:22:00,28.0,7.9,30.39,North,355,1.0,11.0,39,0.00,,,0.00,162.0,meteohub,2013-01-24 16:22:00,
2013-01-24 11:27:00,28.0,7.3,30.39,ENE,67,7.0,12.0,38,0.00,,,0.00,599.0,meteohub,2013-01-24 16:27:00,
2013-01-24 11:32:00,28.2,6.4,30.39,NNW,331,2.0,12.0,36,0.00,,,0.00,123.0,meteohub,2013-01-24 16:32:00,
2013-01-24 11:37:00,27.9,5.5,30.40,ESE,104,2.0,19.0,35,0.00,,,0.00,664.0,meteohub,2013-01-24 16:37:00,
2013-01-24 11:42:00,28.0,7.3,30.40,NNW,348,4.0,19.0,38,0.00,,,0.00,573.0,meteohub,2013-01-24 16:42:00,
2013-01-24 11:47:00,28.2,6.4,30.40,NW,321,2.0,19.0,36,0.00,,,0.00,127.0,meteohub,2013-01-24 16:47:00,
2013-01-24 11:52:00,28.6,6.1,30.40,WNW,302,6.0,11.0,35,0.00,,,0.00,541.0,meteohub,2013-01-24 16:52:00,
2013-01-24 11:57:00,28.8,6.3,30.40,NNW,333,6.0,14.0,35,0.00,,,0.00,563.0,meteohub,2013-01-24 16:57:00,
2013-01-24 12:02:00,29.1,7.2,30.40,West,279,4.0,14.0,36,0.00,,,0.00,531.0,meteohub,2013-01-24 17:02:00,
2013-01-24 12:07:00,29.3,6.3,30.40,WNW,302,1.0,14.0,34,0.00,,,0.00,522.0,meteohub,2013-01-24 17:07:00,
2013-01-24 12:12:00,29.5,7.0,30.41,SW,223,1.0,14.0,35,0.00,,,0.00,536.0,meteohub,2013-01-24 17:12:00,
2013-01-24 12:17:00,29.7,6.6,30.41,WNW,284,1.0,14.0,34,0.00,,,0.00,619.0,meteohub,2013-01-24 17:17:00,
2013-01-24 12:22:00,30.0,6.3,30.40,WSW,249,3.0,14.0,33,0.00,,,0.00,587.0,meteohub,2013-01-24 17:22:00,
2013-01-24 12:27:00,29.8,7.3,30.40,East,80,4.0,14.0,35,0.00,,,0.00,457.0,meteohub,2013-01-24 17:27:00,
2013-01-24 12:32:00,30.0,6.3,30.40,SSW,209,2.0,16.0,33,0.00,,,0.00,534.0,meteohub,2013-01-24 17:32:00,
2013-01-24 12:37:00,30.4,5.9,30.40,WNW,303,3.0,16.0,32,0.00,,,0.00,485.0,meteohub,2013-01-24 17:37:00,
2013-01-24 12:42:00,30.2,4.5,30.40,West,277,5.0,9.0,30,0.00,,,0.00,462.0,meteohub,2013-01-24 17:42:00,
2013-01-24 12:47:00,29.8,4.8,30.40,West,263,4.0,13.0,31,0.00,,,0.00,436.0,meteohub,2013-01-24 17:47:00,
2013-01-24 12:52:00,29.7,5.4,30.40,NNW,348,4.0,13.0,32,0.00,,,0.00,445.0,meteohub,2013-01-24 17:52:00,
2013-01-24 12:57:00,30.0,5.7,30.41,WSW,250,2.0,13.0,32,0.00,,,0.00,461.0,meteohub,2013-01-24 17:57:00,
2013-01-24 13:02:00,29.8,4.8,30.41,WSW,243,9.0,12.0,31,0.00,,,0.00,469.0,meteohub,2013-01-24 18:02:00,
2013-01-24 13:07:00,29.5,5.2,30.40,NW,308,1.0,12.0,32,0.00,,,0.00,461.0,meteohub,2013-01-24 18:07:00,
2013-01-24 13:12:00,29.7,4.6,30.41,NNE,22,3.0,12.0,31,0.00,,,0.00,496.0,meteohub,2013-01-24 18:12:00,
2013-01-24 13:17:00,30.0,5.7,30.40,West,269,11.0,13.0,32,0.00,,,0.00,506.0,meteohub,2013-01-24 18:17:00,
2013-01-24 13:22:00,30.0,4.3,30.40,SSW,212,4.0,13.0,30,0.00,,,0.00,490.0,meteohub,2013-01-24 18:22:00,
2013-01-24 13:27:00,29.8,4.1,30.41,NW,313,1.0,15.0,30,0.00,,,0.00,302.0,meteohub,2013-01-24 18:27:00,
2013-01-24 13:32:00,29.7,4.1,30.41,SW,222,3.0,15.0,30,0.00,,,0.00,202.0,meteohub,2013-01-24 18:32:00,
2013-01-24 13:37:00,29.3,3.7,30.42,NW,309,4.0,18.0,30,0.00,,,0.00,404.0,meteohub,2013-01-24 18:37:00,
2013-01-24 13:42:00,29.1,3.6,30.42,West,261,1.0,18.0,30,0.00,,,0.00,406.0,meteohub,2013-01-24 18:42:00,
2013-01-24 13:47:00,29.1,4.3,30.42,SW,227,5.0,18.0,31,0.00,,,0.00,199.0,meteohub,2013-01-24 18:47:00,
2013-01-24 13:52:00,29.3,3.7,30.42,ENE,59,4.0,10.0,30,0.00,,,0.00,487.0,meteohub,2013-01-24 18:52:00,
2013-01-24 13:57:00,29.5,3.9,30.41,NE,35,3.0,12.0,30,0.00,,,0.00,487.0,meteohub,2013-01-24 18:57:00,
2013-01-24 14:02:00,29.7,4.6,30.42,West,267,4.0,12.0,31,0.00,,,0.00,483.0,meteohub,2013-01-24 19:02:00,
2013-01-24 14:07:00,30.0,4.3,30.42,WSW,242,2.0,12.0,30,0.00,,,0.00,487.0,meteohub,2013-01-24 19:07:00,
2013-01-24 14:12:00,29.7,4.1,30.42,NW,325,4.0,16.0,30,0.00,,,0.00,550.0,meteohub,2013-01-24 19:12:00,
2013-01-24 14:17:00,30.0,4.3,30.43,WSW,254,2.0,16.0,30,0.00,,,0.00,533.0,meteohub,2013-01-24 19:17:00,
2013-01-24 14:22:00,30.2,3.9,30.42,SW,219,1.0,16.0,29,0.00,,,0.00,497.0,meteohub,2013-01-24 19:22:00,
2013-01-24 14:27:00,30.2,4.5,30.43,North,350,7.0,14.0,30,0.00,,,0.00,480.0,meteohub,2013-01-24 19:27:00,
2013-01-24 14:32:00,30.6,3.4,30.43,North,355,7.0,16.0,28,0.00,,,0.00,450.0,meteohub,2013-01-24 19:32:00,
2013-01-24 14:37:00,30.4,3.9,30.43,NNE,28,7.0,17.0,29,0.00,,,0.00,468.0,meteohub,2013-01-24 19:37:00,
2013-01-24 14:42:00,30.4,3.4,30.43,ENE,60,7.0,17.0,28,0.00,,,0.00,434.0,meteohub,2013-01-24 19:42:00,
2013-01-24 14:47:00,30.2,2.5,30.43,NW,317,5.0,15.0,27,0.00,,,0.00,415.0,meteohub,2013-01-24 19:47:00,
2013-01-24 14:52:00,30.4,3.4,30.43,West,279,6.0,15.0,28,0.00,,,0.00,403.0,meteohub,2013-01-24 19:52:00,
2013-01-24 14:57:00,30.2,3.2,30.44,NW,315,9.0,14.0,28,0.00,,,0.00,390.0,meteohub,2013-01-24 19:57:00,
2013-01-24 15:02:00,30.0,3.7,30.44,South,169,4.0,16.0,29,0.00,,,0.00,376.0,meteohub,2013-01-24 20:02:00,
2013-01-24 15:07:00,30.0,4.3,30.45,West,272,0.0,16.0,30,0.00,,,0.00,364.0,meteohub,2013-01-24 20:07:00,
2013-01-24 15:12:00,30.2,3.2,30.45,NW,304,6.0,16.0,28,0.00,,,0.00,352.0,meteohub,2013-01-24 20:12:00,
2013-01-24 15:17:00,30.2,3.2,30.45,East,82,2.0,13.0,28,0.00,,,0.00,334.0,meteohub,2013-01-24 20:17:00,
2013-01-24 15:22:00,30.4,3.4,30.45,North,355,6.0,13.0,28,0.00,,,0.00,316.0,meteohub,2013-01-24 20:22:00,
2013-01-24 15:27:00,30.4,2.7,30.45,West,267,4.0,10.0,27,0.00,,,0.00,304.0,meteohub,2013-01-24 20:27:00,
2013-01-24 15:32:00,30.4,3.4,30.45,NW,318,5.0,10.0,28,0.00,,,0.00,290.0,meteohub,2013-01-24 20:32:00,
2013-01-24 15:37:00,30.2,3.2,30.45,WNW,290,1.0,13.0,28,0.00,,,0.00,279.0,meteohub,2013-01-24 20:37:00,
2013-01-24 15:42:00,29.7,3.4,30.45,West,269,2.0,13.0,29,0.00,,,0.00,207.0,meteohub,2013-01-24 20:42:00,
2013-01-24 15:47:00,29.5,3.2,30.46,NNW,331,0.0,10.0,29,0.00,,,0.00,204.0,meteohub,2013-01-24 20:47:00,
2013-01-24 15:52:00,29.5,4.5,30.46,SE,138,1.0,11.0,31,0.00,,,0.00,163.0,meteohub,2013-01-24 20:52:00,
2013-01-24 15:57:00,29.5,4.5,30.47,NW,322,1.0,11.0,31,0.00,,,0.00,162.0,meteohub,2013-01-24 20:57:00,
2013-01-24 16:02:00,29.5,4.5,30.47,NE,35,4.0,7.0,31,0.00,,,0.00,105.0,meteohub,2013-01-24 21:02:00,
2013-01-24 16:07:00,29.1,4.8,30.47,North,0,0.0,9.0,32,0.00,,,0.00,44.0,meteohub,2013-01-24 21:07:00,
2013-01-24 16:12:00,28.8,4.5,30.47,NE,50,7.0,9.0,32,0.00,,,0.00,40.0,meteohub,2013-01-24 21:12:00,
2013-01-24 16:17:00,28.4,4.8,30.47,East,98,4.0,15.0,33,0.00,,,0.00,37.0,meteohub,2013-01-24 21:17:00,
2013-01-24 16:22:00,28.2,4.1,30.47,NW,305,2.0,15.0,32,0.00,,,0.00,35.0,meteohub,2013-01-24 21:22:00,
2013-01-24 16:27:00,28.0,4.5,30.47,North,0,6.0,15.0,33,0.00,,,0.00,33.0,meteohub,2013-01-24 21:27:00,
2013-01-24 16:32:00,27.9,4.3,30.48,NNE,14,2.0,9.0,33,0.00,,,0.00,26.0,meteohub,2013-01-24 21:32:00,
2013-01-24 16:37:00,27.7,3.6,30.48,WNW,291,1.0,7.0,32,0.00,,,0.00,25.0,meteohub,2013-01-24 21:37:00,
2013-01-24 16:42:00,27.5,3.4,30.48,NE,55,3.0,7.0,32,0.00,,,0.00,23.0,meteohub,2013-01-24 21:42:00,
2013-01-24 16:47:00,27.3,2.7,30.48,North,9,1.0,7.0,31,0.00,,,0.00,25.0,meteohub,2013-01-24 21:47:00,
2013-01-24 16:52:00,27.3,2.7,30.48,WSW,243,0.0,7.0,31,0.00,,,0.00,19.0,meteohub,2013-01-24 21:52:00,
2013-01-24 16:57:00,27.0,2.8,30.48,North,9,0.0,6.0,32,0.00,,,0.00,14.0,meteohub,2013-01-24 21:57:00,
2013-01-24 17:02:00,26.8,2.7,30.48,NNW,340,2.0,4.0,32,0.00,,,0.00,12.0,meteohub,2013-01-24 22:02:00,
2013-01-24 17:07:00,26.6,3.2,30.48,NE,43,1.0,7.0,33,0.00,,,0.00,12.0,meteohub,2013-01-24 22:07:00,
2013-01-24 17:12:00,26.6,2.7,30.50,NNW,332,1.0,12.0,32,0.00,,,0.00,9.0,meteohub,2013-01-24 22:12:00,
2013-01-24 17:17:00,26.4,1.8,30.50,WNW,302,2.0,12.0,31,0.00,,,0.00,7.0,meteohub,2013-01-24 22:17:00,
2013-01-24 17:22:00,26.4,2.5,30.48,NW,317,1.0,12.0,32,0.00,,,0.00,5.0,meteohub,2013-01-24 22:22:00,
2013-01-24 17:27:00,26.2,2.3,30.49,ENE,57,3.0,7.0,32,0.00,,,0.00,0.0,meteohub,2013-01-24 22:27:00,
2013-01-24 17:32:00,26.1,2.7,30.49,East,92,1.0,7.0,33,0.00,,,0.00,0.0,meteohub,2013-01-24 22:32:00,
2013-01-24 17:37:00,25.9,1.9,30.50,North,350,4.0,4.0,32,0.00,,,0.00,0.0,meteohub,2013-01-24 22:37:00,
2013-01-24 17:42:00,25.7,1.8,30.50,WNW,292,1.0,4.0,32,0.00,,,0.00,0.0,meteohub,2013-01-24 22:42:00,
2013-01-24 17:47:00,25.7,1.8,30.51,ENE,57,3.0,4.0,32,0.00,,,0.00,0.0,meteohub,2013-01-24 22:47:00,
2013-01-24 17:52:00,25.5,2.3,30.51,NE,53,4.0,5.0,33,0.00,,,0.00,0.0,meteohub,2013-01-24 22:52:00,
2013-01-24 17:57:00,25.5,2.8,30.51,East,97,1.0,6.0,34,0.00,,,0.00,0.0,meteohub,2013-01-24 22:57:00,
2013-01-24 18:02:00,25.2,4.1,30.51,NW,316,5.0,6.0,37,0.00,,,0.00,0.0,meteohub,2013-01-24 23:02:00,
2013-01-24 18:07:00,25.0,2.3,30.51,ESE,107,2.0,6.0,34,0.00,,,0.00,0.0,meteohub,2013-01-24 23:07:00,
2013-01-24 18:12:00,25.0,2.3,30.52,East,87,2.0,7.0,34,0.00,,,0.00,0.0,meteohub,2013-01-24 23:12:00,
2013-01-24 18:17:00,25.0,2.8,30.52,NNW,343,3.0,7.0,35,0.00,,,0.00,0.0,meteohub,2013-01-24 23:17:00,
2013-01-24 18:22:00,25.0,2.8,30.51,NNW,336,0.0,7.0,35,0.00,,,0.00,0.0,meteohub,2013-01-24 23:22:00,
2013-01-24 18:27:00,24.8,3.4,30.51,NW,321,0.0,5.0,36,0.00,,,0.00,0.0,meteohub,2013-01-24 23:27:00,
2013-01-24 18:32:00,24.6,2.7,30.53,East,94,3.0,5.0,35,0.00,,,0.00,0.0,meteohub,2013-01-24 23:32:00,
2013-01-24 18:37:00,24.6,4.3,30.53,ESE,105,0.0,6.0,38,0.00,,,0.00,0.0,meteohub,2013-01-24 23:37:00,
2013-01-24 18:42:00,24.3,2.8,30.52,ENE,73,1.0,6.0,36,0.00,,,0.00,0.0,meteohub,2013-01-24 23:42:00,
2013-01-24 18:47:00,24.1,2.7,30.52,ENE,69,0.0,6.0,36,0.00,,,0.00,0.0,meteohub,2013-01-24 23:47:00,
2013-01-24 18:52:00,23.9,3.6,30.53,ENE,69,1.0,4.0,38,0.00,,,0.00,0.0,meteohub,2013-01-24 23:52:00,
2013-01-24 18:57:00,23.9,4.1,30.54,ENE,69,0.0,4.0,39,0.00,,,0.00,0.0,meteohub,2013-01-24 23:57:00,
2013-01-24 19:02:00,23.7,4.5,30.54,ENE,69,0.0,3.0,40,0.00,,,0.00,0.0,meteohub,2013-01-25 00:02:00,
2013-01-24 19:07:00,23.5,3.7,30.54,ENE,61,3.0,3.0,39,0.00,,,0.00,0.0,meteohub,2013-01-25 00:07:00,
2013-01-24 19:12:00,23.0,7.2,30.54,WNW,283,1.0,4.0,47,0.00,,,0.00,0.0,meteohub,2013-01-25 00:12:00,
2013-01-24 19:17:00,22.6,6.8,30.56,South,183,2.0,4.0,47,0.00,,,0.00,0.0,meteohub,2013-01-25 00:17:00,
2013-01-24 19:22:00,22.3,6.8,30.55,SE,143,0.0,4.0,48,0.00,,,0.00,0.0,meteohub,2013-01-25 00:22:00,
2013-01-24 19:27:00,22.1,7.2,30.54,West,275,3.0,4.0,49,0.00,,,0.00,0.0,meteohub,2013-01-25 00:27:00,
2013-01-24 19:32:00,21.9,7.3,30.55,West,275,0.0,4.0,50,0.00,,,0.00,0.0,meteohub,2013-01-25 00:32:00,
2013-01-24 19:37:00,21.7,7.2,30.57,West,275,1.0,4.0,50,0.00,,,0.00,0.0,meteohub,2013-01-25 00:37:00,
2013-01-24 19:42:00,21.6,7.9,30.57,West,266,0.0,4.0,52,0.00,,,0.00,0.0,meteohub,2013-01-25 00:42:00,
2013-01-24 19:47:00,21.4,6.8,30.56,West,268,1.0,2.0,50,0.00,,,0.00,0.0,meteohub,2013-01-25 00:47:00,
2013-01-24 19:52:00,21.4,5.2,30.56,West,270,1.0,3.0,46,0.00,,,0.00,0.0,meteohub,2013-01-25 00:52:00,
2013-01-24 19:57:00,21.6,5.7,30.56,North,0,0.0,5.0,47,0.00,,,0.00,0.0,meteohub,2013-01-25 00:57:00,
2013-01-24 20:02:00,21.9,5.7,30.56,North,5,1.0,5.0,46,0.00,,,0.00,0.0,meteohub,2013-01-25 01:02:00,
2013-01-24 20:07:00,21.9,5.7,30.56,North,5,0.0,5.0,46,0.00,,,0.00,0.0,meteohub,2013-01-25 01:07:00,
2013-01-24 20:12:00,21.9,7.3,30.56,North,5,1.0,2.0,50,0.00,,,0.00,0.0,meteohub,2013-01-25 01:12:00,
2013-01-24 20:17:00,21.7,7.7,30.56,North,5,1.0,2.0,51,0.00,,,0.00,0.0,meteohub,2013-01-25 01:17:00,
2013-01-24 20:22:00,21.6,5.4,30.56,North,5,1.0,2.0,46,0.00,,,0.00,0.0,meteohub,2013-01-25 01:22:00,
2013-01-24 20:27:00,21.4,8.1,30.56,North,5,0.0,2.0,53,0.00,,,0.00,0.0,meteohub,2013-01-25 01:27:00,
2013-01-24 20:32:00,21.2,7.9,30.56,North,5,0.0,2.0,53,0.00,,,0.00,0.0,meteohub,2013-01-25 01:32:00,
2013-01-24 20:37:00,20.8,7.5,30.56,North,5,2.0,3.0,53,0.00,,,0.00,0.0,meteohub,2013-01-25 01:37:00,
2013-01-24 20:42:00,20.5,8.8,30.57,NNW,346,0.0,3.0,57,0.00,,,0.00,0.0,meteohub,2013-01-25 01:42:00,
2013-01-24 20:47:00,20.3,5.9,30.57,NNW,346,0.0,3.0,50,0.00,,,0.00,0.0,meteohub,2013-01-25 01:47:00,
2013-01-24 20:52:00,20.1,7.0,30.56,NNW,346,0.0,3.0,53,0.00,,,0.00,0.0,meteohub,2013-01-25 01:52:00,
2013-01-24 20:58:00,19.9,7.9,30.57,NNW,346,0.0,2.0,56,0.00,,,0.00,0.0,meteohub,2013-01-25 01:58:00,
2013-01-24 21:04:00,19.6,8.2,30.57,NNW,346,0.0,2.0,58,0.00,,,0.00,0.0,meteohub,2013-01-25 02:04:00,
2013-01-24 21:10:00,19.4,8.1,30.57,NNW,346,2.0,2.0,58,0.00,,,0.00,0.0,meteohub,2013-01-25 02:10:00,
2013-01-24 21:16:00,19.0,8.2,30.56,NNW,346,0.0,2.0,59,0.00,,,0.00,0.0,meteohub,2013-01-25 02:16:00,
2013-01-24 21:22:00,18.9,8.6,30.57,NNW,346,0.0,2.0,61,0.00,,,0.00,0.0,meteohub,2013-01-25 02:22:00,
2013-01-24 21:27:00,18.5,8.6,30.57,NNW,346,0.0,2.0,62,0.00,,,0.00,0.0,meteohub,2013-01-25 02:27:00,
2013-01-24 21:32:00,18.3,8.2,30.56,NNW,344,0.0,1.0,61,0.00,,,0.00,0.0,meteohub,2013-01-25 02:32:00,
2013-01-24 21:37:00,18.1,8.4,30.57,NNE,25,1.0,2.0,62,0.00,,,0.00,0.0,meteohub,2013-01-25 02:37:00,
2013-01-24 21:42:00,17.8,8.4,30.56,NNE,25,0.0,2.0,63,0.00,,,0.00,0.0,meteohub,2013-01-25 02:42:00,
2013-01-24 21:47:00,17.6,8.2,30.56,NNE,25,1.0,2.0,63,0.00,,,0.00,0.0,meteohub,2013-01-25 02:47:00,
2013-01-24 21:53:00,17.4,8.6,30.56,NNE,25,1.0,2.0,65,0.00,,,0.00,0.0,meteohub,2013-01-25 02:53:00,
2013-01-24 21:59:00,16.9,8.4,30.57,NNE,25,0.0,2.0,66,0.00,,,0.00,0.0,meteohub,2013-01-25 02:59:00,
2013-01-24 22:05:00,16.7,8.2,30.56,NNE,25,0.0,2.0,66,0.00,,,0.00,0.0,meteohub,2013-01-25 03:05:00,
2013-01-24 22:11:00,16.5,8.8,30.57,NNE,28,0.0,2.0,68,0.00,,,0.00,0.0,meteohub,2013-01-25 03:11:00,
2013-01-24 22:17:00,16.2,8.8,30.57,NNE,28,0.0,2.0,69,0.00,,,0.00,0.0,meteohub,2013-01-25 03:17:00,
2013-01-24 22:22:00,16.0,8.2,30.57,NNE,28,0.0,2.0,68,0.00,,,0.00,0.0,meteohub,2013-01-25 03:22:00,
2013-01-24 22:27:00,16.0,8.2,30.57,NNE,28,0.0,2.0,68,0.00,,,0.00,0.0,meteohub,2013-01-25 03:27:00,
2013-01-24 22:32:00,15.8,8.1,30.57,NNE,28,0.0,2.0,68,0.00,,,0.00,0.0,meteohub,2013-01-25 03:32:00,
2013-01-24 22:37:00,15.6,8.2,30.56,NNE,28,0.0,2.0,69,0.00,,,0.00,0.0,meteohub,2013-01-25 03:37:00,
2013-01-24 22:42:00,15.4,8.1,30.56,NNE,28,0.0,2.0,69,0.00,,,0.00,0.0,meteohub,2013-01-25 03:42:00,
2013-01-24 22:47:00,15.3,8.2,30.56,NNE,28,0.0,2.0,70,0.00,,,0.00,0.0,meteohub,2013-01-25 03:47:00,
2013-01-24 22:52:00,15.1,8.2,30.56,NNE,28,1.0,2.0,71,0.00,,,0.00,0.0,meteohub,2013-01-25 03:52:00,
2013-01-24 22:57:00,15.1,8.2,30.56,NNE,28,0.0,2.0,71,0.00,,,0.00,0.0,meteohub,2013-01-25 03:57:00,
2013-01-24 23:02:00,14.9,8.1,30.57,NNE,28,0.0,2.0,71,0.00,,,0.00,0.0,meteohub,2013-01-25 04:02:00,
2013-01-24 23:07:00,14.7,7.7,30.56,NNE,28,0.0,2.0,70,0.00,,,0.00,0.0,meteohub,2013-01-25 04:07:00,
2013-01-24 23:12:00,14.5,7.5,30.57,NNE,28,0.0,2.0,70,0.00,,,0.00,0.0,meteohub,2013-01-25 04:12:00,
2013-01-24 23:17:00,14.4,7.9,30.57,NNE,28,0.0,2.0,72,0.00,,,0.00,0.0,meteohub,2013-01-25 04:17:00,
2013-01-24 23:22:00,14.2,7.3,30.58,NNE,28,0.0,2.0,71,0.00,,,0.00,0.0,meteohub,2013-01-25 04:22:00,
2013-01-24 23:27:00,14.2,7.7,30.58,NNE,28,0.0,2.0,72,0.00,,,0.00,0.0,meteohub,2013-01-25 04:27:00,
2013-01-24 23:32:00,14.0,7.5,30.58,NNE,28,0.0,2.0,72,0.00,,,0.00,0.0,meteohub,2013-01-25 04:32:00,
2013-01-24 23:37:00,13.8,7.3,30.58,NNE,28,0.0,1.0,72,0.00,,,0.00,0.0,meteohub,2013-01-25 04:37:00,
2013-01-24 23:42:00,13.6,7.2,30.57,NNE,28,0.0,0.0,72,0.00,,,0.00,0.0,meteohub,2013-01-25 04:42:00,
2013-01-24 23:47:00,13.5,7.0,30.57,NNE,28,0.0,0.0,72,0.00,,,0.00,0.0,meteohub,2013-01-25 04:47:00,
2013-01-24 23:52:00,13.3,7.2,30.57,NNE,28,0.0,0.0,73,0.00,,,0.00,0.0,meteohub,2013-01-25 04:52:00,
2013-01-24 23:57:00,13.3,7.3,30.58,NNE,28,0.0,1.0,74,0.00,,,0.00,0.0,meteohub,2013-01-25 04:57:00,